Hourly Weather Bolshoe Beresnevo

Today, 1 August, Sunday

Time Temperature Precipitation Wind Pressure Humidity
00:00 +16°C° 0 mm 2 mps 735 mmHg 70%
01:00 +16°C° 0 mm 2 mps 735 mmHg 71%
02:00 +16°C° 0 mm 2 mps 735 mmHg 72%
03:00 +16°C° 0.2 mm 2 mps 735 mmHg 78%
04:00 +16°C° 0.2 mm 2 mps 735 mmHg 84%
05:00 +16°C° 0.2 mm 2 mps 734 mmHg 90%
06:00 +17°C° 0.7 mm 2 mps 735 mmHg 92%
07:00 +17°C° 0.7 mm 2 mps 735 mmHg 95%
08:00 +17°C° 0 mm 2 mps 734 mmHg 97%
09:00 +19°C° 0.1 mm 3 mps 735 mmHg 91%
10:00 +20°C° 0.1 mm 3 mps 735 mmHg 85%
11:00 +22°C° 0.1 mm 4 mps 735 mmHg 79%
12:00 +23°C° 0.3 mm 4 mps 735 mmHg 73%
13:00 +25°C° 0.3 mm 4 mps 735 mmHg 67%
14:00 +26°C° 0.3 mm 4 mps 735 mmHg 61%
15:00 +26°C° 0.1 mm 4 mps 735 mmHg 59%
16:00 +26°C° 0.1 mm 3 mps 735 mmHg 58%
17:00 +26°C° 0.1 mm 3 mps 735 mmHg 57%
18:00 +24°C° 0 mm 3 mps 735 mmHg 64%
19:00 +21°C° 0 mm 2 mps 735 mmHg 70%
20:00 +20°C° 0 mm 1 mps 735 mmHg 77%
21:00 +20°C° 0 mm 1 mps 735 mmHg 76%
22:00 +17°C° 0 mm 0 mps 735 mmHg 76%
23:00 +16°C° 0 mm 0 mps 735 mmHg 75%

Tomorrow, 2 August, Monday

Time Temperature Precipitation Wind Pressure Humidity
00:00 +18°C° 0 mm 1 mps 735 mmHg 75%
01:00 +18°C° 0 mm 1 mps 735 mmHg 76%
02:00 +17°C° 0 mm 2 mps 734 mmHg 76%
03:00 +17°C° 0 mm 2 mps 734 mmHg 80%
04:00 +17°C° 0 mm 2 mps 734 mmHg 83%
05:00 +18°C° 0 mm 2 mps 733 mmHg 86%
06:00 +19°C° 0.2 mm 3 mps 733 mmHg 85%
07:00 +20°C° 0.2 mm 3 mps 733 mmHg 83%
08:00 +22°C° 0.2 mm 4 mps 732 mmHg 82%
09:00 +23°C° 0 mm 4 mps 732 mmHg 76%
10:00 +26°C° 0 mm 4 mps 731 mmHg 70%
11:00 +27°C° 0 mm 5 mps 731 mmHg 64%
12:00 +28°C° 0 mm 5 mps 730 mmHg 59%
13:00 +29°C° 0 mm 5 mps 730 mmHg 54%
14:00 +32°C° 0 mm 6 mps 729 mmHg 49%
15:00 +29°C° 0.7 mm 5 mps 729 mmHg 55%
16:00 +28°C° 0.7 mm 5 mps 728 mmHg 61%
17:00 +26°C° 0.7 mm 5 mps 728 mmHg 68%
18:00 +23°C° 0.5 mm 4 mps 729 mmHg 74%
19:00 +20°C° 0.5 mm 4 mps 730 mmHg 81%
20:00 +18°C° 0.5 mm 3 mps 731 mmHg 87%
21:00 +17°C° 0 mm 3 mps 731 mmHg 91%
22:00 +16°C° 0 mm 3 mps 731 mmHg 94%
23:00 +15°C° 0 mm 2 mps 731 mmHg 97%

Day after tomorrow, 3 August, Tuesday

Time Temperature Precipitation Wind Pressure Humidity
00:00 +15°C° 0 mm 2 mps 732 mmHg 96%
01:00 +14°C° 0 mm 3 mps 732 mmHg 94%
02:00 +14°C° 0 mm 3 mps 732 mmHg 92%
03:00 +14°C° 0 mm 3 mps 733 mmHg 92%
04:00 +14°C° 0 mm 3 mps 733 mmHg 92%
05:00 +14°C° 0 mm 3 mps 733 mmHg 93%
06:00 +14°C° 0.1 mm 3 mps 734 mmHg 93%
07:00 +14°C° 0.1 mm 3 mps 734 mmHg 93%
08:00 +14°C° 0.1 mm 3 mps 735 mmHg 93%
09:00 +18°C° 0 mm 3 mps 735 mmHg 78%
10:00 +20°C° 0 mm 4 mps 735 mmHg 63%
11:00 +22°C° 0 mm 4 mps 735 mmHg 48%
12:00 +22°C° 0 mm 4 mps 735 mmHg 47%
13:00 +22°C° 0 mm 4 mps 735 mmHg 47%
14:00 +22°C° 0 mm 4 mps 735 mmHg 47%
15:00 +21°C° 0 mm 3 mps 736 mmHg 49%
16:00 +21°C° 0 mm 3 mps 736 mmHg 51%
17:00 +20°C° 0 mm 3 mps 736 mmHg 54%
18:00 +19°C° 0 mm 3 mps 736 mmHg 58%
19:00 +18°C° 0 mm 2 mps 736 mmHg 63%
20:00 +17°C° 0 mm 2 mps 737 mmHg 68%
21:00 +16°C° 0 mm 2 mps 737 mmHg 71%
22:00 +16°C° 0 mm 2 mps 737 mmHg 74%
23:00 +15°C° 0 mm 2 mps 737 mmHg 78%

4 August, Wednesday

Time Temperature Precipitation Wind Pressure Humidity
00:00 +14°C° 0 mm 2 mps 738 mmHg 83%
01:00 +13°C° 0 mm 2 mps 738 mmHg 88%
02:00 +13°C° 0 mm 2 mps 738 mmHg 94%
03:00 +13°C° 0 mm 1 mps 738 mmHg 95%
04:00 +13°C° 0 mm 1 mps 738 mmHg 96%
05:00 +13°C° 0 mm 1 mps 739 mmHg 97%
06:00 +14°C° 0 mm 1 mps 739 mmHg 90%
07:00 +16°C° 0 mm 2 mps 739 mmHg 83%
08:00 +18°C° 0 mm 2 mps 740 mmHg 76%
09:00 +19°C° 0.5 mm 2 mps 740 mmHg 70%
10:00 +20°C° 0.5 mm 2 mps 740 mmHg 64%
11:00 +21°C° 0.5 mm 2 mps 740 mmHg 59%
12:00 +23°C° 0 mm 2 mps 740 mmHg 51%
13:00 +24°C° 0 mm 2 mps 740 mmHg 44%
14:00 +25°C° 0 mm 3 mps 740 mmHg 36%
15:00 +24°C° 0 mm 2 mps 740 mmHg 38%
16:00 +24°C° 0 mm 2 mps 740 mmHg 39%
17:00 +24°C° 0 mm 2 mps 740 mmHg 40%
18:00 +22°C° 0 mm 1 mps 740 mmHg 47%
19:00 +20°C° 0 mm 1 mps 741 mmHg 53%
20:00 +18°C° 0 mm 1 mps 741 mmHg 60%
21:00 +18°C° 0 mm 1 mps 741 mmHg 62%
22:00 +16°C° 0 mm 1 mps 741 mmHg 65%
23:00 +16°C° 0 mm 2 mps 741 mmHg 68%

5 August, Thursday

Time Temperature Precipitation Wind Pressure Humidity
00:00 +16°C° 0 mm 2 mps 741 mmHg 69%
01:00 +16°C° 0 mm 2 mps 741 mmHg 71%
02:00 +15°C° 0 mm 2 mps 741 mmHg 72%
03:00 +15°C° 0 mm 2 mps 741 mmHg 74%
04:00 +15°C° 0 mm 2 mps 741 mmHg 76%
05:00 +15°C° 0 mm 2 mps 741 mmHg 78%
06:00 +15°C° 0.2 mm 2 mps 741 mmHg 81%
07:00 +16°C° 0.2 mm 2 mps 741 mmHg 84%
08:00 +16°C° 0.2 mm 2 mps 741 mmHg 87%
09:00 +16°C° 0.7 mm 2 mps 741 mmHg 89%
10:00 +16°C° 0.7 mm 2 mps 741 mmHg 91%
11:00 +16°C° 0.7 mm 2 mps 741 mmHg 93%
12:00 +15°C° 0.3 mm 2 mps 741 mmHg 94%
13:00 +15°C° 0.3 mm 2 mps 741 mmHg 95%
14:00 +15°C° 0.3 mm 2 mps 741 mmHg 96%
15:00 +15°C° 0 mm 2 mps 741 mmHg 95%
16:00 +15°C° 0 mm 2 mps 740 mmHg 94%
17:00 +15°C° 0 mm 2 mps 740 mmHg 93%
18:00 +15°C° 0 mm 2 mps 740 mmHg 94%
19:00 +15°C° 0 mm 2 mps 739 mmHg 95%
20:00 +15°C° 0 mm 2 mps 739 mmHg 97%
21:00 +15°C° 0 mm 2 mps 739 mmHg 97%
22:00 +15°C° 0 mm 2 mps 739 mmHg 97%
23:00 +14°C° 0 mm 2 mps 739 mmHg 97%

6 August, Friday

Time Temperature Precipitation Wind Pressure Humidity
00:00 +14°C° 0.1 mm 2 mps 739 mmHg 97%
01:00 +14°C° 0.1 mm 2 mps 739 mmHg 98%
02:00 +14°C° 0.1 mm 2 mps 738 mmHg 98%
03:00 +14°C° 0.5 mm 2 mps 738 mmHg 98%
04:00 +15°C° 0.5 mm 2 mps 738 mmHg 98%
05:00 +14°C° 0.5 mm 3 mps 738 mmHg 98%
06:00 +14°C° 1.6 mm 3 mps 738 mmHg 98%
07:00 +14°C° 1.6 mm 3 mps 737 mmHg 98%
08:00 +14°C° 1.6 mm 3 mps 737 mmHg 98%
09:00 +14°C° 2.4 mm 4 mps 737 mmHg 98%
10:00 +14°C° 2.4 mm 4 mps 737 mmHg 98%
11:00 +14°C° 2.4 mm 4 mps 737 mmHg 98%
12:00 +14°C° 2.1 mm 4 mps 736 mmHg 97%
13:00 +16°C° 2.1 mm 3 mps 736 mmHg 97%
14:00 +16°C° 2.1 mm 3 mps 736 mmHg 97%
15:00 +16°C° 0.7 mm 3 mps 736 mmHg 97%
16:00 +16°C° 0.7 mm 3 mps 736 mmHg 97%
17:00 +17°C° 0.7 mm 3 mps 736 mmHg 97%
18:00 +17°C° 0.3 mm 4 mps 735 mmHg 98%
19:00 +15°C° 0.3 mm 4 mps 735 mmHg 98%
20:00 +15°C° 0.3 mm 4 mps 735 mmHg 98%
21:00 +15°C° 0.1 mm 4 mps 735 mmHg 98%
22:00 +16°C° 0.1 mm 3 mps 735 mmHg 98%
23:00 +16°C° 0.1 mm 3 mps 735 mmHg 98%
Show more

We Need Your Consent

Meteoprog and our Service Providers may store and access personal data such as cookies, device identifiers or other similar technologies on your device and process such data to personalise content and ads, as well as provide social media features and to analyse the traffic.

  • Store and/or access information on your device

    Cookies, device identifiers or other information can be stored or accessed on your device for the purposes indicated above.

  • Personalised ads and content, ad and content measurement, audience insights, and products development

    Ads and content can be personalised based on a profile. More data can be added to better personalise ads and content. Ad and content performance can be measured. Insights about the audience who saw the ads and content can be derived. Such data can be used to develop or improve user’s experience, systems and software.

By clicking ‘I Agree’ you will allow the use of indicated cookies, device identifiers, web beacons or other similar technologies. Your settings can be changed in the browser on your device.

For certain purposes, legitimate interests may be relied on, rather than consent. You can read more about this in our Privacy and Cookie Policy.